Content
SEND FEEDBACK

Daily
Averages
Monthly
Summary
Italy

RONCHI DE LEGIONARI, ITALY


Home > Europe > Italy
Elevation: 39 feet     Latitude: 45 49N     Longitude: 013 29E

WEATHER
 
SELECT A DAY
Number of Records: 279,553;   Date Range: 7/1/96 - 11/21/14
 
SHARE

PRINT THIS DATA

[ ← Previous Day ]
WEATHER ALMANAC - OCTOBER 5, 2013
[ Next Day → ]
[ °C ]   °F
Weather ElementAverageHighLow
Temperature53 °F57.2 °F (1:50 pm)46.4 °F (2:50 am)
Dewpoint47.1 °F55.4 °F (8:50 pm)37.4 °F (12:50 am)
Humidity81 %100 % (7:50 pm)66 % (12:50 am)
Barometer30.19 in30.30 in (12:50 am)30.15 in (5:20 pm)
Wind Speed4.2 mph10.4 mph (2:50 pm)
Weather ElementAverage
Visibility4.6 mi
Wind DirectionENE (52.3 °)

Weather ElementTotal
Precipitation---
Heating Degree Days13.2 (Base 65)
Growing Degree Days1.8 (Base 50)
Averaged from 47 records on October 5, 2013
WEATHER CONDITIONS BREAKOUT
WIND DIRECTION BREAKOUT
WEATHER BY HOUR - OCTOBER 5, 2013
[ °C ]   °F
Local TimeTemperatureDewpointHumidityBarometerVisibilityWind DirectionWind SpeedGust SpeedPrecipitationEventsConditions
12:50 AM48.2 °F37.4 °F66 %30.30 inVariable2.3 mphClear
1:20 AM48.2 °F37.4 °F66 %30.30 inNorth (10°)5.8 mphClear
1:50 AM48.2 °F37.4 °F66 %30.27 inVariable3.5 mphClear
2:20 AM48.2 °F37.4 °F66 %30.27 in6.2 miNNE (30°)4.6 mphPartly Cloudy
2:50 AM46.4 °F37.4 °F71 %30.24 inVariable3.5 mphClear
3:20 AM48.2 °F39.2 °F71 %30.24 inNorth (360°)4.6 mphClear
3:50 AM46.4 °F37.4 °F71 %30.24 inNorth (10°)4.6 mphClear
4:20 AM46.4 °F37.4 °F71 %30.24 inNorth (10°)5.8 mphClear
4:50 AM48.2 °F41.0 °F76 %30.21 inNorth (10°)4.6 mphClear
5:20 AM48.2 °F39.2 °F71 %30.21 inNorth (360°)4.6 mphClear
5:50 AM50.0 °F41.0 °F71 %30.21 inVariable3.5 mphClear
6:20 AM50.0 °F41.0 °F71 %30.18 in6.2 miVariable3.5 mphMostly Cloudy
6:50 AM50.0 °F41.0 °F71 %30.18 in6.2 miNorth (360°)4.6 mphMostly Cloudy
7:20 AM50.0 °F41.0 °F71 %30.18 in6.2 miNNE (20°)5.8 mphMostly Cloudy
7:50 AM51.8 °F42.8 °F71 %30.18 in6.2 miVariable3.5 mphMostly Cloudy
8:20 AM51.8 °F42.8 °F71 %30.18 in6.2 miVariable1.2 mphMostly Cloudy
8:50 AM53.6 °F44.6 °F72 %30.18 in6.2 miVariable2.3 mphMostly Cloudy
9:20 AM55.4 °F44.6 °F67 %30.18 in6.2 miVariable1.2 mphMostly Cloudy
9:50 AM53.6 °F44.6 °F72 %30.18 in6.2 miVariable3.5 mphMostly Cloudy
10:20 AM53.6 °F44.6 °F72 %30.21 in5.6 miNorth (350°)5.8 mphRainLight Rain
10:50 AM53.6 °F44.6 °F72 %30.18 in6.2 miNorth (10°)5.8 mphMostly Cloudy
11:20 AM53.6 °F46.4 °F77 %30.21 in5.6 miVariable2.3 mphMostly Cloudy
11:50 AM53.6 °F46.4 °F77 %30.21 in5.0 miNorth (360°)4.6 mphRainLight Rain
12:20 PM53.6 °F48.2 °F82 %30.18 in5.0 miNNE (20°)4.6 mphRainLight Rain
12:50 PM55.4 °F50.0 °F82 %30.18 in5.6 miVariable3.5 mphMostly Cloudy
1:20 PM55.4 °F50.0 °F82 %30.18 in6.2 miVariable3.5 mphMostly Cloudy
1:50 PM57.2 °F51.8 °F82 %30.18 in6.2 miVariable2.3 mphOvercast
2:20 PM57.2 °F50.0 °F77 %30.18 in6.2 miENE (70°)5.8 mphMostly Cloudy
2:50 PM57.2 °F48.2 °F72 %30.18 in6.2 miENE (70°)10.4 mphOvercast
3:20 PM57.2 °F50.0 °F77 %30.18 in6.2 miENE (70°)8.1 mphOvercast
3:50 PM57.2 °F50.0 °F77 %30.18 in6.2 miEast (100°)8.1 mphOvercast
4:20 PM55.4 °F51.8 °F88 %30.18 in2.2 miEast (80°)8.1 mphDrizzle
4:50 PM55.4 °F53.6 °F94 %30.18 in3.1 miNE (50°)4.6 mphLight Drizzle
5:20 PM55.4 °F53.6 °F94 %30.15 in3.1 miVariable3.5 mphLight Drizzle
5:50 PM55.4 °F53.6 °F94 %30.15 in3.7 miVariable2.3 mphLight Drizzle
6:20 PM55.4 °F53.6 °F94 %30.15 in1.9 miVariable1.2 mphLight Drizzle
6:50 PM55.4 °F53.6 °F94 %30.15 in2.5 miVariable2.3 mphLight Drizzle
7:20 PM55.4 °F53.6 °F94 %30.15 in1.9 miNNE (20°)4.6 mphRainLight Rain
7:50 PM53.6 °F53.6 °F100 %30.15 in1.6 miVariable3.5 mphRainLight Rain
8:20 PM55.4 °F53.6 °F94 %30.15 in2.2 miNE (50°)4.6 mphRainLight Rain
8:50 PM55.4 °F55.4 °F100 %30.15 in2.2 miVariable2.3 mphRainLight Rain
9:20 PM55.4 °F55.4 °F100 %30.15 in3.7 miVariable3.5 mphRainLight Rain
9:50 PM55.4 °F55.4 °F100 %30.15 in3.7 miVariable3.5 mphRainLight Rain
10:20 PM55.4 °F55.4 °F100 %30.15 in3.7 miNE (40°)4.6 mphRainLight Rain
10:50 PM55.4 °F55.4 °F100 %30.15 in3.7 miVariable3.5 mphRainLight Rain
11:20 PM55.4 °F55.4 °F100 %30.15 in2.5 miVariable2.3 mphRainLight Rain
11:50 PM55.4 °F55.4 °F100 %30.15 in3.1 miVariable3.5 mphRainLight Rain
Hourly data recorded from LIPQ, located miles away from Ronchi de Legionari, Italy







STORIES FROM OUR PARTNERS